HTBU

Bukoba Airport

Airport
ICAO code
HTBU
IATA Code
BKZ
Summary
ICAO Region
AFI
ICAO Territory
Location

Bukoba, Kagera Region

Serving
Bukoba
Elevation
3766 ft
Coordinates
1° 19' 50" S , 31° 49' 10" E
KCC
Metar
HTBU 141000Z 18010KT 9999 FEW026 FEW028CB 27/19 Q1019 NOSIG

Bukoba Airport is an airport in northwestern Tanzania serving the town of Bukoba and the surrounding Kagera Region. It is adjacent to Lake Victoria.

Climatology

Tropical Savanna climate (Köppen climate classification Aw)

Airport map

Aerial View

SKYbrary Partners:

Safety knowledge contributed by: